INTELSAT 8 (IS-8)

Last updated on Sat Jan 05 2019 02:57:31 GMT+0000 (Coordinated Universal Time)

1 25522U 98065A 19003.76187528 -.00000198 00000-0 00000-0 0 9990 2 25522 2.2963 85.8769 0296007 232.6088 22.2111 0.95186562 18905

Satellite not in orbit

INTELSAT 8 (IS-8)